Terminal Aerodrome Forecast
Issued by NWS

Home | Current Version | Previous Version | Text Only | Print | Product List | Glossary On
Versions: 1 2 3 4 5 6 7 8 9 10 11 12 13 14
278
FTUS46 KLOX 131502 AAA
TAFOXR
TAF AMD
KOXR 131502Z 1315/1412 10004KT P6SM SKC
     FM131600 04005KT P6SM SCT250
     FM132100 27010KT P6SM SKC
     FM140300 VRB03KT P6SM SKC
     FM140900 04012KT P6SM SKC=

USA.gov is the U.S. government's official web portal to all federal, state and local government web resources and services.